| time (UTC) | temp F | wind direction | speed MPH | gust MPH | rain 1hr in | rain 24hr in | rain mn in | humidity % | barometer mb |
| 20260510174555 | 74 | 286 | 4.0 | 11.0 | 0.00 | 0.11 | 0.00 | 59 | 1014.0 |
| 20260510173053 | 74 | 288 | 2.0 | 5.0 | 0.00 | 0.11 | 0.00 | 64 | 1013.9 |
| 20260510171551 | 73 | 271 | 3.0 | 8.0 | 0.00 | 0.11 | 0.00 | 65 | 1013.9 |
| 20260510170100 | 73 | 296 | 4.0 | 8.0 | 0.00 | 0.11 | 0.00 | 66 | 1013.9 |
| 20260510164557 | 73 | 309 | 3.0 | 8.0 | 0.00 | 0.12 | 0.00 | 64 | 1013.9 |
| 20260510163048 | 72 | 305 | 1.0 | 8.0 | 0.00 | 0.12 | 0.00 | 65 | 1013.9 |
| 20260510161550 | 72 | 306 | 3.0 | 8.0 | 0.00 | 0.12 | 0.00 | 65 | 1014.0 |
| 20260510160056 | 71 | 72 | 1.0 | 4.0 | 0.00 | 0.12 | 0.00 | 69 | 1013.8 |
| 20260510154546 | 70 | 302 | 1.0 | 7.0 | 0.00 | 0.12 | 0.00 | 69 | 1014.0 |
| 20260510153037 | 69 | 260 | 2.0 | 6.0 | 0.00 | 0.12 | 0.00 | 70 | 1014.0 |
| 20260510151534 | 68 | 269 | 0.0 | 4.0 | 0.00 | 0.12 | 0.00 | 75 | 1014.0 |
| 20260510150030 | 66 | 296 | 0.0 | 0.0 | 0.00 | 0.12 | 0.00 | 79 | 1014.1 |
| 20260510144528 | 65 | 271 | 2.0 | 5.0 | 0.00 | 0.12 | 0.00 | 82 | 1014.2 |
| 20260510143023 | 63 | 284 | 1.0 | 4.0 | 0.00 | 0.12 | 0.00 | 84 | 1014.3 |
| 20260510141520 | 62 | 301 | 0.0 | 3.0 | 0.00 | 0.12 | 0.00 | 88 | 1014.3 |
| 20260510140016 | 60 | 277 | 0.0 | 3.0 | 0.00 | 0.12 | 0.00 | 91 | 1014.3 |
| 20260510134514 | 60 | 39 | 0.0 | 2.0 | 0.00 | 0.12 | 0.00 | 96 | 1014.0 |
| 20260510133011 | 58 | 87 | 0.0 | 1.0 | 0.00 | 0.12 | 0.00 | 97 | 1014.2 |
| 20260510131508 | 57 | 165 | 0.0 | 0.0 | 0.00 | 0.12 | 0.00 | 99 | 1014.2 |
| 20260510130007 | 54 | 165 | 0.0 | 0.0 | 0.00 | 0.12 | 0.00 | 98 | 1014.2 |
| 20260510124505 | 54 | 161 | 0.0 | 0.0 | 0.00 | 0.12 | 0.00 | 98 | 1014.4 |
| 20260510123108 | 53 | 161 | 0.0 | 0.0 | 0.00 | 0.12 | 0.00 | 98 | 1014.1 |
| 20260510121559 | 53 | 161 | 0.0 | 0.0 | 0.00 | 0.12 | 0.00 | 98 | 1013.7 |
| 20260510120056 | 53 | 76 | 0.0 | 0.0 | 0.00 | 0.12 | 0.00 | 98 | 1013.5 |
| 20260510114553 | 52 | 76 | 0.0 | 0.0 | 0.00 | 0.12 | 0.00 | 98 | 1013.2 |
| 20260510113100 | 51 | 76 | 0.0 | 0.0 | 0.00 | 0.12 | 0.00 | 98 | 1013.2 |
| 20260510111603 | 51 | 75 | 0.0 | 2.0 | 0.00 | 0.12 | 0.00 | 98 | 1013.1 |
| 20260510110043 | 50 | 71 | 0.0 | 0.0 | 0.00 | 0.12 | 0.00 | 98 | 1013.3 |
| 20260510104559 | 50 | 70 | 0.0 | 0.0 | 0.00 | 0.12 | 0.00 | 98 | 1013.1 |
| 20260510103042 | 50 | 71 | 0.0 | 0.0 | 0.00 | 0.12 | 0.00 | 98 | 1012.6 |
| 20260510101540 | 50 | 71 | 0.0 | 0.0 | 0.00 | 0.12 | 0.00 | 98 | 1012.6 |
| 20260510100040 | 50 | 71 | 0.0 | 0.0 | 0.00 | 0.12 | 0.00 | 98 | 1012.8 |
| 20260510094545 | 50 | 71 | 0.0 | 0.0 | 0.00 | 0.12 | 0.00 | 98 | 1012.6 |
| 20260510093040 | 50 | 71 | 0.0 | 0.0 | 0.00 | 0.12 | 0.00 | 98 | 1012.5 |
| 20260510091550 | 50 | 70 | 0.0 | 0.0 | 0.00 | 0.12 | 0.00 | 98 | 1012.4 |
| 20260510090037 | 50 | 62 | 0.0 | 0.0 | 0.00 | 0.12 | 0.00 | 98 | 1012.5 |
| 20260510084542 | 50 | 29 | 0.0 | 2.0 | 0.00 | 0.12 | 0.00 | 98 | 1012.7 |
| 20260510083033 | 49 | 194 | 1.0 | 4.0 | 0.00 | 0.12 | 0.00 | 98 | 1012.6 |
| 20260510081538 | 48 | 329 | 0.0 | 0.0 | 0.00 | 0.12 | 0.00 | 97 | 1012.4 |
| 20260510080037 | 49 | 44 | 0.0 | 0.0 | 0.00 | 0.12 | 0.00 | 97 | 1011.9 |
| 20260510074531 | 49 | 44 | 0.0 | 0.0 | 0.00 | 0.12 | 0.00 | 97 | 1011.8 |
| 20260510073036 | 49 | 45 | 0.0 | 0.0 | 0.00 | 0.12 | 0.00 | 97 | 1011.8 |
| 20260510071536 | 48 | 355 | 0.0 | 0.0 | 0.00 | 0.12 | 0.00 | 97 | 1011.9 |
| 20260510070028 | 48 | 343 | 0.0 | 0.0 | 0.00 | 0.12 | 0.00 | 97 | 1011.9 |
| 20260510064546 | 48 | 136 | 0.0 | 0.0 | 0.00 | 0.12 | 0.00 | 97 | 1011.7 |
| 20260510063033 | 48 | 137 | 0.0 | 0.0 | 0.00 | 0.12 | 0.00 | 97 | 1011.4 |
| 20260510061535 | 48 | 137 | 0.0 | 0.0 | 0.00 | 0.12 | 0.00 | 97 | 1011.5 |
| 20260510060031 | 48 | 137 | 0.0 | 0.0 | 0.00 | 0.12 | 0.00 | 97 | 1011.5 |
| 20260510054521 | 48 | 137 | 0.0 | 0.0 | 0.00 | 0.12 | 0.00 | 97 | 1011.6 |
| 20260510053019 | 48 | 137 | 0.0 | 1.0 | 0.00 | 0.12 | 0.00 | 97 | 1011.9 |
| 20260510051518 | 48 | 137 | 0.0 | 1.0 | 0.00 | 0.12 | 0.00 | 97 | 1011.9 |
| 20260510050015 | 48 | 360 | 0.0 | 0.0 | 0.00 | 0.12 | 0.00 | 96 | 1011.9 |
| 20260510044514 | 48 | 138 | 0.0 | 0.0 | 0.00 | 0.12 | 0.00 | 96 | 1012.0 |
| 20260510043014 | 48 | 137 | 0.0 | 0.0 | 0.00 | 0.12 | 0.00 | 96 | 1012.0 |
| 20260510041515 | 48 | 137 | 0.0 | 0.0 | 0.00 | 0.12 | 0.00 | 96 | 1012.1 |
| 20260510040010 | 48 | 139 | 0.0 | 0.0 | 0.00 | 0.12 | 0.00 | 96 | 1012.3 |
| 20260510034509 | 48 | 137 | 0.0 | 0.0 | 0.00 | 0.12 | 0.12 | 96 | 1012.2 |
| 20260510033011 | 49 | 137 | 0.0 | 0.0 | 0.00 | 0.12 | 0.12 | 96 | 1012.1 |
| 20260510031507 | 49 | 137 | 0.0 | 0.0 | 0.00 | 0.12 | 0.12 | 96 | 1012.0 |
| 20260510030108 | 49 | 139 | 0.0 | 0.0 | 0.00 | 0.12 | 0.12 | 96 | 1011.8 |
| 20260510024504 | 49 | 139 | 0.0 | 1.0 | 0.00 | 0.12 | 0.12 | 95 | 1011.8 |
| 20260510023003 | 50 | 360 | 0.0 | 0.0 | 0.00 | 0.12 | 0.12 | 95 | 1011.8 |
| 20260510021506 | 50 | 360 | 0.0 | 0.0 | 0.00 | 0.12 | 0.12 | 95 | 1011.7 |
| 20260510020100 | 51 | 138 | 0.0 | 0.0 | 0.00 | 0.12 | 0.12 | 95 | 1011.6 |
| 20260510014601 | 51 | 360 | 0.0 | 0.0 | 0.00 | 0.12 | 0.12 | 95 | 1011.4 |
| 20260510013103 | 51 | 139 | 0.0 | 0.0 | 0.00 | 0.12 | 0.12 | 95 | 1011.5 |
| 20260510011557 | 52 | 138 | 0.0 | 1.0 | 0.00 | 0.12 | 0.12 | 94 | 1011.4 |
| 20260510010054 | 52 | 137 | 0.0 | 0.0 | 0.00 | 0.12 | 0.12 | 94 | 1011.2 |
| 20260510004553 | 53 | 137 | 0.0 | 0.0 | 0.00 | 0.12 | 0.12 | 94 | 1011.1 |
| 20260510003057 | 53 | 137 | 0.0 | 0.0 | 0.00 | 0.12 | 0.12 | 94 | 1011.1 |
| 20260510001552 | 54 | 137 | 0.0 | 1.0 | 0.00 | 0.12 | 0.12 | 93 | 1011.0 |
| 20260510000055 | 55 | 138 | 0.0 | 1.0 | 0.00 | 0.12 | 0.12 | 92 | 1011.0 |
| 20260509234602 | 56 | 137 | 0.0 | 1.0 | 0.00 | 0.12 | 0.12 | 92 | 1011.0 |
| 20260509233055 | 56 | 140 | 0.0 | 0.0 | 0.00 | 0.12 | 0.12 | 92 | 1010.9 |
| 20260509231606 | 56 | 138 | 0.0 | 0.0 | 0.00 | 0.12 | 0.12 | 92 | 1010.9 |
| 20260509230059 | 56 | 138 | 0.0 | 0.0 | 0.00 | 0.12 | 0.12 | 92 | 1010.9 |
| 20260509224547 | 56 | 119 | 0.0 | 0.0 | 0.00 | 0.12 | 0.12 | 93 | 1010.9 |
| 20260509223048 | 56 | 119 | 0.0 | 3.0 | 0.00 | 0.12 | 0.12 | 93 | 1011.0 |
| 20260509221545 | 56 | 126 | 0.0 | 4.0 | 0.01 | 0.12 | 0.12 | 93 | 1010.9 |
| 20260509220044 | 56 | 131 | 0.0 | 0.0 | 0.01 | 0.12 | 0.12 | 94 | 1010.9 |
| 20260509214544 | 56 | 139 | 0.0 | 0.0 | 0.01 | 0.12 | 0.12 | 93 | 1011.0 |
| 20260509213046 | 56 | 128 | 0.0 | 0.0 | 0.04 | 0.12 | 0.12 | 93 | 1011.2 |
| 20260509211550 | 56 | 128 | 0.0 | 0.0 | 0.04 | 0.11 | 0.11 | 93 | 1011.3 |
| 20260509210057 | 56 | 127 | 0.0 | 0.0 | 0.04 | 0.11 | 0.11 | 93 | 1011.1 |
| 20260509204542 | 55 | 67 | 0.0 | 2.0 | 0.05 | 0.11 | 0.11 | 93 | 1011.2 |
| 20260509203045 | 55 | 46 | 0.0 | 3.0 | 0.03 | 0.08 | 0.08 | 92 | 1010.8 |
| 20260509201553 | 56 | 319 | 1.0 | 3.0 | 0.03 | 0.07 | 0.07 | 93 | 1011.0 |
| 20260509200038 | 56 | 46 | 0.0 | 2.0 | 0.03 | 0.07 | 0.07 | 93 | 1011.1 |
| 20260509194536 | 55 | 96 | 0.0 | 4.0 | 0.02 | 0.06 | 0.06 | 93 | 1011.3 |
| 20260509193038 | 56 | 13 | 1.0 | 4.0 | 0.02 | 0.05 | 0.05 | 92 | 1011.5 |
| 20260509191539 | 56 | 305 | 0.0 | 0.0 | 0.02 | 0.04 | 0.04 | 93 | 1011.8 |
| 20260509190036 | 56 | 360 | 1.0 | 3.0 | 0.03 | 0.04 | 0.04 | 92 | 1012.0 |
| 20260509184541 | 56 | 360 | 2.0 | 5.0 | 0.03 | 0.04 | 0.04 | 92 | 1011.9 |
| 20260509183035 | 56 | 360 | 0.0 | 3.0 | 0.02 | 0.03 | 0.03 | 92 | 1012.2 |
| 20260509181530 | 56 | 36 | 1.0 | 3.0 | 0.01 | 0.02 | 0.02 | 90 | 1012.2 |
| 20260509180029 | 57 | 282 | 2.0 | 6.0 | 0.00 | 0.01 | 0.01 | 88 | 1012.3 |